Current weather by "City, St" or "zip code"  
 
Advertise Here

Current Conditions: Richard I. Bong Airport, WI

Fair


68.0 F

Last Updated on Aug 4 2020, 4:55 pm CDT
Humidity: 54%
Wind Speed: NE 8.1 mph
Barometer 30.11 in
Dewpoint: 50.9 F
Visibility: 10.00 mi
Precip: --
Heat Index: NA
Wind Chill: NA
Current conditions at:

Richard I. Bong Airport, WI (KSUW)

Lat: 46.68335 Lon: 92.09254

Local Radar Image active severe weather and emergency alerts image image weather storm and storm spotter reports image weather observation monitoring service image
Local
Radar
Active
Alerts
Storm Reports Obs
Monitoring

Sign-up For Email & Text Message Weather Alert Notification Services


Advertise Here

Observation History for Richard I. Bong Airport, WI


Time Wind
(mph)
Vis
(mi)
Weather Precip (in) Temperature (F) Relative
Humidity
Wind
Chill
(F)
Heat
Index
(F)
Pressure
Air Dwpt altimeter
(in)
sea level
(mb)
Rmks
4:55 pm CDT NE 8.1 10.00 Fair -- 68.0 50.9 54% NA NA 30.11 M
3:55 pm CDT NE 8.1 10.00 Fair -- 69.0 51.4 55% NA NA 30.12 M
2:55 pm CDT NE 8.1 10.00 Fair -- 68.0 51.6 55% NA NA 30.14 M
1:55 pm CDT NE 9.2 10.00 Fair -- 69.0 50.0 51% NA NA 30.15 M
12:55 pm CDT N 8.1 10.00 Fair -- 68.0 51.3 56% NA NA 30.16 M
11:55 am CDT NE 9.2 10.00 Fair -- 67.0 50.7 56% NA NA 30.16 M
10:55 am CDT NE 5.8 10.00 Fair -- 66.0 51.4 60% NA NA 30.16 M
9:55 am CDT E 6.9 10.00 Fair -- 64.0 49.5 59% NA NA 30.16 M
8:55 am CDT E 5.8 10.00 Fair -- 62.0 52.3 72% 62 NA 30.16 M
7:55 am CDT E 4.6 10.00 Fair -- 59.0 51.6 78% 59 NA 30.16 M
6:55 am CDT SE 3.5 10.00 Partly Cloudy -- 52.0 50.2 93% NA NA 30.16 M
5:55 am CDT E 4.6 10.00 Mostly Cloudy -- 52.0 48.9 89% 51 NA 30.16 M
4:55 am CDT E 4.6 10.00 Mostly Cloudy -- 53.0 48.9 85% 52 NA 30.15 M
3:55 am CDT E 3.5 10.00 Partly Cloudy -- 53.0 48.7 85% NA NA 30.14 M
2:55 am CDT NE 4.6 10.00 Partly Cloudy -- 56.0 49.1 78% 55 NA 30.14 M
1:55 am CDT E 5.8 10.00 Mostly Cloudy -- 58.0 50.4 76% 57 NA 30.16 M
12:55 am CDT N 0.0 10.00 Overcast -- 56.0 53.6 91% NA NA 30.15 M
11:55 pm CDT N 3.5 10.00 Overcast -- 62.0 56.8 83% NA NA 30.14 M
10:55 pm CDT N 0.0 10.00 Overcast -- 58.0 52.7 83% NA NA 30.15 M
9:55 pm CDT SW 3.5 10.00 Mostly Cloudy -- 56.0 51.1 83% NA NA 30.13 M
8:55 pm CDT N 0.0 10.00 Partly Cloudy -- 61.0 50.2 67% NA NA 30.12 M
7:55 pm CDT SW 4.6 10.00 Partly Cloudy -- 68.0 49.1 51% NA NA 30.12 M
6:55 pm CDT W 6.9 10.00 Mostly Cloudy -- 70.0 48.9 47% NA NA 30.13 M
5:55 pm CDT SW 3.5 10.00 Overcast -- 70.0 47.5 45% NA NA 30.15 M

Regional Weather Observation


Duluth - Sky Harbor Airport, MN (KDYT)

Fair
66.0 F

Richard I. Bong Airport, WI (KSUW)

Fair
68.0 F

Cloquet Carlton County Airport, MN (KCOQ)

Fair
68.0 F

Moose Lake Carlton County Airport, MN (KMZH)

Fair
73.0 F

Two Harbors, MN (KTWM)

Fair
66.0 F

Eveleth-Virginia Municipal Airport, MN (KEVM)

Fair
71.0 F